• MPC Preparation (Info)

  • MPEC 2014-N15 : 2008 QV11

    The following Minor Planet Electronic Circular may be linked-to from your own Web pages, but must not otherwise be redistributed electronically.

    A form allowing access to any MPEC is at the bottom of this page.


    Read MPEC 2014-N14 Read MPEC 2014-N16


    M.P.E.C. 2014-N15                                Issued 2014 July 2, 19:24 UT
    
         The Minor Planet Electronic Circulars contain information on unusual
             minor planets and routine data on comets.  They are published
       on behalf of Commission 20 of the International Astronomical Union by the
              Minor Planet Center, Smithsonian Astrophysical Observatory,
                              Cambridge, MA 02138, U.S.A.
    
                 Prepared using the Tamkin Foundation Computer Network
    
                                  MPC@CFA.HARVARD.EDU
                URL https://www.minorplanetcenter.net/    ISSN 1523-6714
    
                                       2008 QV11
    
                               Revision to MPEC 2008-Q48
    
    Additional Observations:
         K08Q11V  C2014 06 29.48307 21 46 31.581-10 52 10.43         20.8 wLEN015F51
         K08Q11V  C2014 06 29.49541 21 46 30.197-10 52 27.51         21.4 wLEN015F51
         K08Q11V  C2014 06 29.50765 21 46 28.806-10 52 44.46         21.0 wLEN015F51
         K08Q11V =C2014 06 30.48413 21 44 44.03 -11 15 30.8          20.6  tEN015568
         K08Q11V =C2014 06 30.48538 21 44 43.89 -11 15 32.6          20.5  tEN015568
         K08Q11V =C2014 06 30.48663 21 44 43.74 -11 15 34.4          20.5  tEN015568
    
    Observer details:
    568 Mauna Kea.  Observers R. J. Wainscoat, D. Woodworth.  Measurers P. Veres,
        R. J. Wainscoat.  3.6-m Canada-France-Hawaii Telescope + CCD.
    F51 Pan-STARRS 1, Haleakala.  Observers N. Primak, A. Schultz, T. Goggia,
        M. Willman.  Measurer P. Veres.  1.8-m Ritchey-Chretien + CCD.
    
    First and last observations above in comparison with prediction:
    Residuals in seconds of arc (or two decimals in degrees), reference and Delta-T
    140629 F51 4.09+ 0.48+    140630 568 4.22+ 0.52+    MPO143310   -2.5 day
    
    Orbital elements:
    2008 QV11                                                Earth MOID = 0.0984 AU
    Epoch 2014 May 23.0 TT = JDT 2456800.5                  MPC
    M 108.83671              (2000.0)            P               Q
    n   1.13945103     Peri.    7.37974     -0.52548142     -0.84062860
    a   0.9078322      Node   114.40313     +0.77305292     -0.53615012
    e   0.4529965      Incl.    8.28335     +0.35532866     -0.07672417
    P   0.86           H   20.8           G   0.15           U   7
    Residuals in seconds of arc
    080826 E12  0.4-  0.1+    080827 E12  0.0   0.1-    080901 E12  0.1-  0.3-
    080826 E12  0.7-  0.1+    080828 E16 (1.9+  1.1+)   080901 E12  0.3-  0.2-
    080826 E12  0.0   0.1+    080828 474  0.2-  0.2+    140629 F51  0.0   0.0
    080826 E12  0.4+  0.1-    080828 E16 (2.1+  1.3+)   140629 F51  0.1+  0.0
    080826 E12  1.3-  0.7+    080828 474  0.0   0.0     140629 F51  0.1-  0.0
    080826 E12  0.5+  0.9-    080828 474  0.1+  0.1-    140630 568  0.1-  0.1-
    080826 E12  1.1+  0.9+    080828 474  0.0   0.0     140630 568  0.0   0.1-
    080827 E12  0.3-  0.2-    080828 E16 (2.5+  1.6+)   140630 568  0.0   0.1-
    080827 E12  0.2+  0.2-    080828 E12  0.2+  0.3-
    
    Ephemeris:
    2008 QV11                a,e,i = 0.91, 0.45, 8                   q = 0.4966
    Date    TT    R. A. (2000) Decl.     Delta      r     Elong.  Phase     V
    2014 06 02    22 01 47.4 -05 04 12   0.5051  1.2120   100.4    55.4    21.7
    ...
    2014 06 17    22 00 23.7 -07 12 17   0.4313  1.2647   115.8    46.3    21.2
    ...
    2014 06 25    21 53 12.5 -09 18 22   0.3914  1.2855   125.9    39.8    20.9
    ...
    2014 07 01    21 43 45.3 -11 27 40   0.3636  1.2978   134.5    33.9    20.6
    2014 07 02    21 41 47.5 -11 52 21   0.3593  1.2996   136.1    32.9    20.5
    2014 07 03    21 39 42.7 -12 17 56   0.3551  1.3013   137.7    31.7    20.5
    ...
    2014 07 09    21 24 40.1 -15 09 34   0.3324  1.3099   147.8    24.4    20.1
    ...
    2014 07 17    20 57 39.2 -19 36 54   0.3114  1.3169   162.7    13.2    19.6
    ...
    2014 08 01    19 52 05.3 -27 46 38   0.3103  1.3169   164.7    11.7    19.6
    
    A. U. Tomatic                (C) Copyright 2014 MPC           M.P.E.C. 2014-N15
    

    Read MPEC 2014-N14 Read MPEC 2014-N16


    MPEC number:

    Enter an MPEC number in one of the following forms:

    • 1997-B01 (the full form)
    • J97B01 (the packed version of the full form)
    • B01 (the abbreviated form)